This is the latest recevied weather packets stored in our database for station/object DH8TOM-2. If no packets are shown the sender has not sent any weather packets the latest 10 day(s).
| Time | Temp. | Humidity | Pressure | Rain* | Wind** | Luminosity | Snow |
|---|---|---|---|---|---|---|---|
| 1777718270 | 25° C | 41% | 1019.3 hPa | 0 mm | - | - | - |
| 1777717969 | 25° C | 41% | 1019.3 hPa | 0 mm | - | - | - |
| 1777717669 | 24.44° C | 38% | 1019.5 hPa | 0 mm | - | - | - |
| 1777717367 | 24.44° C | 38% | 1019.5 hPa | 0 mm | - | - | - |
| 1777717066 | 23.89° C | 40% | 1019.6 hPa | 0 mm | - | - | - |
| 1777716765 | 23.89° C | 40% | 1019.6 hPa | 0 mm | - | - | - |
| 1777716464 | 23.89° C | 43% | 1019.7 hPa | 0 mm | - | - | - |
| 1777716162 | 23.89° C | 43% | 1019.7 hPa | 0 mm | - | - | - |
| 1777715862 | 23.89° C | 46% | 1019.7 hPa | 0 mm | - | - | - |
| 1777715561 | 23.89° C | 46% | 1019.7 hPa | 0 mm | - | - | - |
| 1777715260 | 23.33° C | 44% | 1019.8 hPa | 0 mm | - | - | - |
| 1777714960 | 23.33° C | 44% | 1019.8 hPa | 0 mm | - | - | - |
| 1777714658 | 23.33° C | 44% | 1019.9 hPa | 0 mm | - | - | - |
| 1777714357 | 23.33° C | 44% | 1019.9 hPa | 0 mm | - | - | - |
| 1777714056 | 22.78° C | 45% | 1019.9 hPa | 0 mm | - | - | - |
| 1777713756 | 22.78° C | 45% | 1019.9 hPa | 0 mm | - | - | - |
| 1777713454 | 22.22° C | 47% | 1019.9 hPa | 0 mm | - | - | - |
| 1777713154 | 22.22° C | 47% | 1019.9 hPa | 0 mm | - | - | - |
| 1777712854 | 22.22° C | 49% | 1020 hPa | 0 mm | - | - | - |
| 1777712551 | 22.22° C | 49% | 1020 hPa | 0 mm | - | - | - |
| 1777712251 | 21.67° C | 52% | 1020 hPa | 0 mm | - | - | - |
| 1777711949 | 21.67° C | 52% | 1020 hPa | 0 mm | - | - | - |
| 1777711648 | 20.56° C | 52% | 1020.1 hPa | 0 mm | - | - | - |
| 1777711347 | 20.56° C | 52% | 1020.1 hPa | 0 mm | - | - | - |
| 1777711046 | 20° C | 53% | 1020.1 hPa | 0 mm | - | - | - |
* Rain latest hour (hover to see other rain measurements)
** Current wind speed in m/s (hover to see current wind gust speed)